Showing default

ION SCV-011, 56957

Orbit data source: Space-Track

ION SCV-011, 56957 is a payload satellite owned by D-ORBIT (IT) in SSO that was launched on Mon, 12 Jun 2023 UTC via an FALCON 9 launch vehicle from the Air Force Western Test Range (AFWTR). Payload-class satellites include a variety of spacecraft equipped with specific instruments for various scientific and technological missions. These include communications satellites like Starlink; space stations such as the ISS; scientific satellites like the Hubble; Earth observation satellites from companies like Planet Labs, Umbra, and HawkEye 360; GPS; miniature CubeSats for education and research; and military/defense satellites.

Loading next visibility...
Identifier
56957, 2023-084AB
Orbit
SSO
Country
Flag of ITIT
Related business
Manufacturer
D-ORBIT
Mission
Operational Commercial Technology
Bus & Motor
ION-SC, PM200
Mass
220 kg wet, 150 kg dry
Launch date (UTC)
2023-06-12 (2 years ago)
Launch vehicle
FALCON 9
Launch site
Air Force Western Test Range (AFWTR)
Object type
Payload
Rocket body
Debris
Shape & HBR
Box, 0.2 m
Radar Cross Section
0.240 m², Medium (>0.1 m² and < 1m²)

Expand to show TLE details & history
Last TLE update: 6 hours ago

TLE from 6 hours ago
0 ION SCV-011
1 56957U 23084AB  25299.44683448  .00007503  00000-0  29903-3 0  9998
2 56957  98.1269 100.7467 0008657 124.3715 235.8340 15.25515584130137
Epoch: 2025-10-26T10:43Z
TLE epoch observation values (Epoch: 2025-10-26T10:43:26.499Z)
Latitude
-0.00009°
Longitude
-95.17661°
Altitude
495.657 km
Speed
7.615 km/s
True Right ascension
06h 42m 59s
True Declination
0° 00' 00"
Sunlit
Object was in daylight at epoch
Visualization orbit readout
Latitude
Unknown
Longitude
Unknown
Altitude
Unknown
Speed
Unknown
Apparent Right ascension
Unknown
Apparent Declination
Unknown
Sunlit
N/A
Visualization observer readout
Local Sidereal Time
12:27:47
Azimuth
Unknown
Elevation
Unknown
Doppler factor
Unknown
Orbital elements
Apogee altitude
492.171 km
Perigee altitude
480.286 km
Semi-major axis
6,864.366 km
Eccentricity
0.00087
Inclination
98.1269°
RAAN
100.7467°
Arg. of periapsis
124.3715°
True anomaly
235.75197°
Mean anomaly
235.834°
Eccentric anomaly
235.79298°
Mean motion
3.8163 °/min
Orbital period
94.33 mins
BSTAR
0.00029903
Loading maneuver chart data...
Computing Atmospheric mass density...

Documentation

Showing up to 5 results
|